Regional Weather Roundup
Issued by NWS Lake Charles, LA

Home | Current Version | Previous Version | Text Only | Print | Product List | Glossary On
Versions: 1 2 3 4 5 6 7 8 9 10 11 12 13 14 15 16 17 18 19 20 21 22 23 24 25 26 27
000
ASUS44 KLCH 231710
RWRLCH
REGIONAL WEATHER ROUNDUP
NATIONAL WEATHER SERVICE LAKE CHARLES LA
1100 AM CST THU FEB 23 2017

Note: "fair" indicates few or no clouds below 12,000 feet with no
significant weather and/or obstructions to visibility.


ACROSS SOUTHEAST TEXAS

CITY           SKY/WX    TMP DP  RH WIND       PRES   REMARKS
BEAUMONT       SUNNY     75  56  51 S10       29.82S
BEAUMONT CITY  FAIR      75  58  55 S8G16     29.82F
ORANGE         SUNNY     72  60  67 S10       29.85S
JASPER         SUNNY     73  59  61 S10       29.83F
$$

ACROSS CENTRAL LOUISIANA

CITY           SKY/WX    TMP DP  RH WIND       PRES   REMARKS
LEESVILLE      SUNNY     70  58  65 S13       29.82S
FULLERTON      FAIR      72  58  61 VRB3      29.80F
ALEXANDRIA INT SUNNY     70  58  65 S10       29.81F
ESLER FIELD    SUNNY     74  57  55 S14       29.82F
DERIDDER       FAIR      71  55  57 SE9       29.84F
OAKDALE        SUNNY     70  58  63 SE7       29.84S
OPELOUSAS      FAIR      73  56  53 MISG      29.83F
$$

ACROSS SOUTHWEST AND SOUTH CENTRAL LOUISIANA

CITY           SKY/WX    TMP DP  RH WIND       PRES   REMARKS
SULPHUR        SUNNY     73  59  61 S14G20    29.84S
LAKE CHARLES   SUNNY     73  58  59 S9        29.83S
CHENNAULT INT  MOSUNNY   68  61  77 S8        29.84S
CAMERON PHI    SUNNY     68  63  83 S12       29.83S
DEQUINCY       FAIR      72  57  60 S13G18    29.83S
JENNINGS       FAIR      70  58  66 S7        29.84F
LAFAYETTE      SUNNY     75  57  53 S7        29.84S
NEW IBERIA     SUNNY     74  57  55 S7        29.85S
ABBEVILLE      FAIR      72  61  68 SE9       29.85S
PATTERSON      SUNNY     74  59  59 S7        29.85F
SALT POINT       N/A     70  58  65 SE10      29.83F
$$

SELECTED SITES ACROSS THE REGION

CITY           SKY/WX    TMP DP  RH WIND       PRES   REMARKS
HOUSTON BUSH   SUNNY     75  58  55 SE13      29.78F
HOUSTON HOBBY  SUNNY     76  61  59 S13       29.79F
GALVESTON      SUNNY     73  65  75 S12       29.82S
COLLEGE STAT   SUNNY     75  59  57 S16       29.73F
CONROE         SUNNY     75  57  53 S13       29.78F
HUNTSVILLE     SUNNY     75  51  43 S14G26    29.76F
LUFKIN         SUNNY     72  57  59 S12       29.77F
SHREVEPORT     SUNNY     75  53  46 S17       29.75F
MONROE         SUNNY     71  56  58 S10       29.81F
NATCHEZ MS     SUNNY     72  55  56 CALM      29.83F
BATON ROUGE    SUNNY     74  56  53 S5        29.84F
N.O. INTL ARPT MOSUNNY   73  61  65 S6        29.85F
SLIDELL        SUNNY     74  60  61 S6        29.84F
$$

MARINE REPORTS

STATION/POSITION TIME  SKY/WX   TEMP    WIND        PRES    VSBY
                                AIR SEA DIR/SP/G
                 (UTC)          (F)     (DEG/KT/KT) (MB)    (MI)
BUOY 30 S HIGH I 1550            67 65  170/  8/ 10 1009.6
WVE H/P(F/S)=  1/ 3

SEA RIM ST PARK  1600            67     170/  7/  9 1010.5R
PORT ARTHUR      1648               66  200/  9/ 12 1010.1S
SABINE PASS N    1648            68 68  190/  9/ 12 1011.4S
TEXAS POINT      NOT AVBL
CALCASIEU PASS   1648            67 66  180/ 10/ 12   N/A
LK CHARLES BEACH 1648            72 67              1010.7R
MARSH ISLAND     1600            66                   N/A
FRESH WATER LOCK 1648            66 66  130/  8/ 11 1011.4F
AMERADA PASS     1648            70 56  100/  6/ 10 1010.6F
$$




USA.gov is the U.S. government's official web portal to all federal, state and local government web resources and services.